Flag for Brazil Weather past 2 weeks in São Luis, Maranhão, Brazil

Now
86 °F

Passing clouds.


Feels Like: 89 °F
Forecast: 77 / 89 °F
Wind: 10 mph from Southeast

Location: Sao Luiz Aeroporto

Current Time: Aug 1, 2015 at 12:03:29 PM

Latest Report: Aug 1, 2015 at 11:00 AM


Visibility: N/A

Pressure: 29.95 "Hg

Humidity: 55%

Dew point: 68 °F

Location of São LuisLocation

Historic Weather in São Luis — Graph

°F

São Luis temperature yesterday

Maximum temperature yesterday: 91 °F (at 4:00 PM)
Minimum temperature yesterday: 77 °F (at 4:00 AM)
Average temperature yesterday: 82 °F

Past Weeks' High & Low Weather Summary

 TemperatureHumidityPressure
High91 °F (Jul 31, 4:00 PM)100% (Jul 26, 12:00 AM)30.01 "Hg (Jul 26, 12:00 AM)
Low75 °F (Jul 22, 11:00 PM)41% (Jul 31, 4:00 PM)29.83 "Hg (Jul 28, 4:00 PM)
Average82 °F71%29.93 "Hg
* Reported Jul 17 11:00 AM — Aug 1 11:00 AM, São Luis, Weather by CustomWeather, © 2015

Note: Actual official high and low records may vary slightly from our data, if they occured in-between our weather recording intervals... More about our weather records

Advertising

São Luis weather history for previous 24 hours

 ConditionsComfort  
Time TempWeatherWind HumidityBarometerVisibility
11:00 AM
Sat, Aug 1
86 °FPassing clouds.10 mph55%29.95 "HgN/A
10:00 AM84 °FPassing clouds.13 mph58%29.95 "HgN/A
9:00 AM81 °FPassing clouds.15 mph70%29.95 "HgN/A
8:00 AM79 °FScattered clouds.10 mph74%29.95 "HgN/A
7:00 AM79 °FScattered clouds.5 mph79%29.92 "HgN/A
6:00 AM77 °FClear.7 mph83%29.89 "Hg10 mi
5:00 AM77 °FClear.6 mph83%29.89 "Hg10 mi
4:00 AM77 °FClear.5 mph79%29.89 "Hg10 mi
3:00 AM77 °FClear.3 mph79%29.89 "Hg10 mi
2:00 AM77 °FClear.5 mph79%29.92 "Hg10 mi
1:00 AM77 °FClear.7 mph79%29.95 "Hg10 mi
12:00 AM77 °FClear.5 mph79%29.95 "Hg10 mi
11:00 PM
Fri, Jul 31
79 °FClear.7 mph74%29.95 "Hg10 mi
10:00 PM79 °FClear.7 mph74%29.95 "Hg10 mi
9:00 PM81 °FClear.7 mph70%29.92 "Hg10 mi
8:00 PM81 °FClear.7 mph70%29.92 "Hg10 mi
7:00 PM81 °FPassing clouds.13 mph70%29.89 "HgN/A
6:00 PM82 °FScattered clouds.10 mph66%29.89 "HgN/A
5:00 PM84 °FScattered clouds.10 mph66%29.86 "HgN/A
4:00 PM91 °FScattered clouds.5 mph41%29.86 "HgN/A
3:00 PM90 °FScattered clouds.7 mph43%29.86 "HgN/A
2:00 PM90 °FScattered clouds.3 mph43%29.89 "HgN/A
1:00 PM90 °FScattered clouds.6 mph46%29.92 "HgN/A
12:00 PM88 °FScattered clouds.8 mph49%29.95 "HgN/A
Weather by CustomWeather, © 2015

See weather overviewHow to use our weather pages